ASTRA 1N

Last updated on Nov. 17, 2019, 4:19 a.m. UTC

1 37775U 11041A   19320.13877535  .00000131  00000-0  00000+0 0  9994
2 37775   0.0549  52.0406 0000839 226.1714 205.9173  1.00273398 30282
UTC
Height (km)
Latitude
Longitude
Inclination
Orbital Period
UTC large
Height (km)
Speed (km/s)
/
Latitude / Longitude
Inclination (degrees)
Orbital Period (minutes)
Azimuth
Elevation
Range (km)
Doppler Factor
iOS Compass Heading
iOS Angle

Next 30 passes for location: Hong Kong

Rise time Rise Azimuth (degrees) Set time Set Azimuth (degrees) Duration Max altitude (degrees)

No matching passes for this satellites